Location: Aghk�ilisa
(40.0189°N, 45.0097°E)
Time: 20:52:17
(UTC+00:00)

CENTAUR R/B - Pass Details

Date: 21 October 2019
Orbit: 781 x 1407 km, 63.4° (Epoch: 10 November)

Event Time Altitude Azimuth Distance (km) Brightness Sun altitude
Rises 16:45:21 0° 225° (SW) 3,402 5.8 -29.9°
Reaches altitude 10° 16:47:42 10° 230° (SW) 2,530 5.1 -30.3°
Maximum altitude 16:53:30 59° 309° (NW) 1,114 2.9 -31.4°
Enters shadow 16:55:24 43° 4° (N) 1,378 3.2 -31.8°
